KB2SKP Weather Reports


Display with metric or nautical units.
time (UTC)temp
F
wind
direction
speed
MPH
gust
MPH
rain 1hr
in
rain 24hr
in
rain mn
in
humidity
%
barometer
mb
20260502152248 54 194 0.0 3.0 0.00 0.00 0.00 60 1010.4
20260502151745 54 311 0.0 3.0 0.00 0.00 0.00 59 1010.9
20260502151242 55 208 1.0 3.0 0.00 0.00 0.00 58 1010.9
20260502150739 54 173 2.0 3.0 0.00 0.00 0.00 58 1010.7
20260502150236 54 150 0.0 2.0 0.00 0.00 0.00 60 1010.8
20260502130619 52 233 1.0 5.0 0.00 0.00 0.00 62 1010.0
20260502130116 52 295 3.0 4.0 0.00 0.00 0.00 65 1010.2
20260502123602 51 196 2.0 4.0 0.00 0.00 0.00 67 1010.0
20260502123058 51 220 1.0 5.0 0.00 0.00 0.00 68 1010.0
20260502122555 52 184 1.0 3.0 0.00 0.00 0.00 69 1010.0
20260502122052 51 230 1.0 4.0 0.00 0.00 0.00 69 1009.7
20260502121549 51 286 2.0 5.0 0.00 0.00 0.00 69 1009.7
20260502121047 52 170 2.0 2.0 0.00 0.00 0.00 70 1009.7
20260502120543 52 128 0.0 3.0 0.00 0.00 0.00 71 1010.0
20260502115538 52 290 0.0 3.0 0.00 0.00 0.00 71 1010.2
20260502115033 52 225 0.0 3.0 0.00 0.00 0.00 71 1010.1
20260502114530 52 16 2.0 3.0 0.00 0.00 0.00 70 1010.3
20260502114027 52 236 4.0 5.0 0.00 0.00 0.00 69 1010.1
20260502113525 52 238 3.0 3.0 0.00 0.00 0.00 70 1010.2
20260502113023 52 154 1.0 4.0 0.00 0.00 0.00 70 1010.1
20260502112521 52 228 1.0 4.0 0.00 0.00 0.00 73 1010.2
20260502112018 52 200 0.0 5.0 0.00 0.00 0.00 73 1010.1
20260502111515 52 243 0.0 2.0 0.00 0.00 0.00 75 1009.9
20260502111013 52 0 0.0 3.0 0.00 0.00 0.00 76 1010.0
20260502110510 52 236 1.0 2.0 0.00 0.00 0.00 77 1009.7
20260502110008 52 163 2.0 3.0 0.00 0.00 0.00 77 1009.8
20260502105505 52 219 1.0 3.0 0.00 0.00 0.00 78 1009.6
20260502105002 52 254 0.0 2.0 0.00 0.00 0.00 77 1009.6
20260502104459 52 343 0.0 2.0 0.00 0.00 0.00 77 1009.5
20260502103956 52 167 0.0 2.0 0.00 0.00 0.00 77 1009.7
20260502103454 52 56 0.0 3.0 0.00 0.00 0.00 76 1009.7
20260502102951 52 144 1.0 2.0 0.00 0.00 0.00 75 1009.5
20260502102448 52 82 0.0 2.0 0.00 0.00 0.00 75 1009.5
20260502101944 52 142 0.0 3.0 0.00 0.00 0.00 74 1009.4
20260502101443 52 94 2.0 2.0 0.00 0.00 0.00 75 1009.4
20260502100941 52 125 1.0 3.0 0.00 0.00 0.00 76 1009.3
20260502100440 52 198 1.0 2.0 0.00 0.00 0.00 75 1009.2
20260502091414 50 214 1.0 2.0 0.00 0.00 0.00 87 1008.9
20260502090911 49 181 0.0 3.0 0.00 0.00 0.00 89 1008.8
20260502090408 49 208 0.0 2.0 0.00 0.00 0.00 91 1008.7
20260502071303 49 105 1.0 2.0 0.00 0.00 0.00 93 1008.3
20260502070801 49 127 0.0 2.0 0.00 0.00 0.00 93 1008.1
20260502070258 49 107 0.0 2.0 0.00 0.00 0.00 93 1008.1
20260502065757 49 96 2.0 2.0 0.00 0.00 0.00 92 1008.2
20260502065255 49 121 0.0 2.0 0.00 0.00 0.00 92 1008.2
20260502064753 49 107 2.0 3.0 0.00 0.00 0.00 92 1008.4
20260502064250 50 75 0.0 2.0 0.00 0.00 0.00 92 1008.1
20260502063747 50 128 1.0 2.0 0.00 0.00 0.00 91 1008.0
20260502063245 50 127 0.0 2.0 0.00 0.00 0.00 91 1008.1
20260502062742 50 95 1.0 2.0 0.00 0.00 0.00 90 1008.2
20260502062240 51 89 2.0 3.0 0.00 0.00 0.00 90 1008.4
20260502061738 51 76 0.0 2.0 0.00 0.00 0.00 90 1008.4
20260502061236 51 109 1.0 2.0 0.00 0.00 0.00 90 1008.6
20260502060730 51 119 1.0 3.0 0.00 0.00 0.00 89 1008.8
20260502060226 51 186 0.0 2.0 0.00 0.00 0.00 89 1008.9
20260502055724 51 101 2.0 2.0 0.00 0.00 0.00 89 1009.0
20260502055222 51 357 0.0 2.0 0.00 0.00 0.00 89 1009.1
20260502054721 52 110 2.0 2.0 0.00 0.00 0.00 89 1008.9
20260502054218 52 116 1.0 2.0 0.00 0.00 0.00 89 1009.3
20260502053716 52 201 0.0 2.0 0.00 0.00 0.00 89 1009.3
20260502053213 52 127 0.0 2.0 0.00 0.00 0.00 89 1009.2
20260502052711 52 176 1.0 2.0 0.00 0.00 0.00 88 1009.1
20260502052208 52 217 0.0 2.0 0.00 0.00 0.00 88 1009.0
20260502051701 52 123 2.0 3.0 0.00 0.00 0.00 87 1008.7
20260502051159 52 113 1.0 2.0 0.00 0.00 0.00 87 1008.7
20260502050655 53 73 0.0 2.0 0.00 0.00 0.00 87 1008.7
20260502050151 53 97 1.0 2.0 0.00 0.00 0.00 86 1008.6
20260502045648 53 141 1.0 2.0 0.00 0.00 0.00 86 1008.7
20260502045145 53 131 0.0 2.0 0.00 0.00 0.00 86 1008.5
20260502044642 53 143 1.0 3.0 0.00 0.00 0.00 85 1008.7
20260502044138 53 138 2.0 3.0 0.00 0.00 0.00 85 1008.7
20260502043636 53 108 1.0 2.0 0.00 0.00 0.00 85 1008.7
20260502043133 53 122 2.0 2.0 0.00 0.00 0.00 85 1008.7
20260502042627 53 134 1.0 3.0 0.00 0.00 0.00 85 1008.8
20260502042124 53 125 2.0 3.0 0.00 0.00 0.00 85 1008.6
20260502041622 53 89 0.0 1.0 0.00 0.00 0.00 85 1008.5
20260502041119 53 92 1.0 2.0 0.00 0.00 0.00 85 1008.8
20260502040615 53 135 0.0 2.0 0.00 0.00 0.00 85 1008.4
20260502040113 53 94 1.0 2.0 0.00 0.00 0.00 84 1008.6
20260502035609 53 89 1.0 2.0 0.00 0.00 0.00 84 1008.6
20260502035106 53 113 1.0 2.0 0.00 0.00 0.00 84 1008.6
20260502034603 53 160 1.0 2.0 0.00 0.00 0.00 84 1008.6
20260502034102 53 209 0.0 2.0 0.00 0.00 0.00 83 1008.7
20260502033600 53 129 0.0 2.0 0.00 0.00 0.00 82 1008.8
20260502033057 53 118 1.0 2.0 0.00 0.00 0.00 82 1008.7
20260502032553 53 138 0.0 2.0 0.00 0.00 0.00 82 1008.6
20260502032049 53 54 0.0 2.0 0.00 0.00 0.00 81 1008.7
20260502031547 53 111 1.0 2.0 0.00 0.00 0.00 80 1008.6
20260502031044 54 122 0.0 4.0 0.00 0.00 0.00 80 1008.6
20260502030544 54 118 2.0 2.0 0.00 0.00 0.00 79 1008.5
20260502030041 54 112 2.0 2.0 0.00 0.00 0.00 79 1008.4
20260502025538 54 120 2.0 3.0 0.00 0.00 0.00 79 1008.5
20260502025036 54 147 1.0 2.0 0.00 0.00 0.00 79 1008.5
20260502024533 54 108 1.0 2.0 0.00 0.00 0.00 78 1008.5
20260502024032 54 105 3.0 3.0 0.00 0.00 0.00 78 1008.7
20260502023529 54 116 0.0 2.0 0.00 0.00 0.00 78 1008.8
20260502023026 54 55 0.0 2.0 0.00 0.00 0.00 78 1008.6
20260502022523 54 87 1.0 2.0 0.00 0.00 0.00 78 1008.7
20260502022020 54 129 0.0 1.0 0.00 0.00 0.00 77 1008.7
20260502021518 55 46 1.0 2.0 0.00 0.00 0.00 77 1008.6
20260502021014 55 113 0.0 2.0 0.00 0.00 0.00 77 1008.8
20260502020512 55 124 0.0 2.0 0.00 0.00 0.00 76 1008.7
20260502020009 55 114 0.0 3.0 0.00 0.00 0.00 76 1008.9
20260502015507 55 89 0.0 2.0 0.00 0.00 0.00 76 1008.8
20260502015003 55 160 0.0 3.0 0.00 0.00 0.00 76 1008.8
20260502014459 55 101 1.0 2.0 0.00 0.00 0.00 75 1009.0
20260502013956 55 172 0.0 1.0 0.00 0.00 0.00 74 1008.8
20260502013446 55 76 0.0 1.0 0.00 0.00 0.00 73 1008.7
20260502012943 55 58 1.0 2.0 0.00 0.00 0.00 73 1008.7
20260502012441 56 76 2.0 2.0 0.00 0.00 0.00 72 1008.5
20260502011938 55 101 0.0 3.0 0.00 0.00 0.00 71 1008.6
20260502011433 56 103 0.0 1.0 0.00 0.00 0.00 70 1008.3
20260502010931 56 106 0.0 2.0 0.00 0.00 0.00 71 1008.2
20260502010427 56 49 0.0 2.0 0.00 0.00 0.00 70 1008.0
20260502005924 56 75 0.0 2.0 0.00 0.00 0.00 69 1008.0
20260502005422 56 54 2.0 3.0 0.00 0.00 0.00 68 1008.1
20260502004920 56 61 2.0 4.0 0.00 0.00 0.00 68 1007.9
20260502004415 56 87 2.0 3.0 0.00 0.00 0.00 67 1008.0
20260502003913 57 307 0.0 2.0 0.00 0.00 0.00 66 1007.8
20260502003410 57 66 2.0 3.0 0.00 0.00 0.00 65 1007.8
20260502002906 57 61 2.0 3.0 0.00 0.00 0.00 65 1007.9
20260502002403 57 70 2.0 2.0 0.00 0.00 0.00 64 1007.8
20260502001855 57 91 2.0 3.0 0.00 0.00 0.00 64 1008.0
20260502001352 57 15 1.0 3.0 0.00 0.00 0.00 64 1008.0
20260502000850 57 58 1.0 2.0 0.00 0.00 0.00 64 1007.8
20260502000348 57 39 2.0 2.0 0.00 0.00 0.00 63 1008.2
20260501235844 57 30 0.0 2.0 0.00 0.00 0.00 62 1007.9
20260501235339 58 62 2.0 2.0 0.00 0.00 0.00 62 1007.9
20260501234835 58 76 0.0 2.0 0.00 0.00 0.00 61 1007.8
20260501234332 58 40 0.0 2.0 0.00 0.00 0.00 60 1007.5
20260501233831 58 65 2.0 2.0 0.00 0.00 0.00 60 1007.7
20260501233328 59 66 0.0 2.0 0.00 0.00 0.00 60 1007.7
20260501232823 59 108 2.0 3.0 0.00 0.00 0.00 59 1007.8
20260501232321 59 38 1.0 2.0 0.00 0.00 0.00 58 1007.5
20260501231818 59 71 1.0 2.0 0.00 0.00 0.00 57 1007.4
20260501231316 59 75 1.0 2.0 0.00 0.00 0.00 56 1007.5
20260501230814 60 44 0.0 2.0 0.00 0.00 0.00 56 1007.6
20260501230313 60 58 2.0 2.0 0.00 0.00 0.00 54 1007.6
20260501225810 60 38 2.0 3.0 0.00 0.00 0.00 53 1007.5
20260501225308 60 77 2.0 3.0 0.00 0.00 0.00 52 1007.5
20260501224804 60 26 1.0 3.0 0.00 0.00 0.00 53 1007.4
20260501224301 61 74 2.0 3.0 0.00 0.00 0.00 53 1007.4
20260501223756 61 60 0.0 3.0 0.00 0.00 0.00 53 1007.4
20260501223253 61 86 2.0 2.0 0.00 0.00 0.00 55 1007.7
20260501222749 61 202 0.0 2.0 0.00 0.00 0.00 54 1007.6
20260501222247 61 60 0.0 2.0 0.00 0.00 0.00 53 1007.6
20260501221744 61 71 2.0 2.0 0.00 0.00 0.00 52 1007.6
20260501221240 62 11 2.0 3.0 0.00 0.00 0.00 51 1007.8
20260501220732 62 54 2.0 3.0 0.00 0.00 0.00 48 1007.8
20260501220229 62 58 2.0 3.0 0.00 0.00 0.00 48 1008.0
20260501215727 62 66 2.0 3.0 0.00 0.00 0.00 46 1008.1
20260501215222 62 41 3.0 3.0 0.00 0.00 0.00 45 1008.0
20260501214717 62 56 2.0 3.0 0.00 0.00 0.00 44 1007.9
20260501214213 62 57 2.0 3.0 0.00 0.00 0.00 43 1007.9
20260501213710 63 85 2.0 3.0 0.00 0.00 0.00 43 1008.0
20260501213205 63 45 3.0 3.0 0.00 0.00 0.00 43 1008.0
20260501212701 63 84 0.0 3.0 0.00 0.00 0.00 42 1008.0
20260501212158 64 59 2.0 2.0 0.00 0.00 0.00 42 1007.9
20260501211655 64 43 2.0 5.0 0.00 0.00 0.00 43 1008.2
20260501211153 64 103 2.0 4.0 0.00 0.00 0.00 41 1007.8
20260501210649 64 41 2.0 3.0 0.00 0.00 0.00 41 1007.8
20260501210146 64 105 3.0 3.0 0.00 0.00 0.00 42 1007.8
20260501205642 65 18 1.0 3.0 0.00 0.00 0.00 42 1007.9
20260501205140 63 59 1.0 3.0 0.00 0.00 0.00 42 1008.1
20260501204636 63 152 0.0 3.0 0.00 0.00 0.00 42 1008.2
20260501204132 64 93 0.0 3.0 0.00 0.00 0.00 41 1008.1
20260501203629 65 55 1.0 2.0 0.00 0.00 0.00 42 1008.3
20260501203127 64 33 0.0 3.0 0.00 0.00 0.00 41 1008.2
20260501202624 65 75 3.0 3.0 0.00 0.00 0.00 42 1008.3
20260501202120 65 14 1.0 3.0 0.00 0.00 0.00 40 1008.6
20260501201618 65 109 4.0 4.0 0.00 0.00 0.00 40 1008.5
20260501201114 64 91 2.0 4.0 0.00 0.00 0.00 41 1008.7
20260501200611 65 97 2.0 3.0 0.00 0.00 0.00 39 1008.8
20260501200109 65 54 1.0 3.0 0.00 0.00 0.00 39 1009.0
20260501195606 65 132 3.0 4.0 0.00 0.00 0.00 39 1009.0
20260501195101 65 4 1.0 4.0 0.00 0.00 0.00 37 1009.1
20260501194552 65 183 2.0 3.0 0.00 0.00 0.00 39 1009.1
20260501194048 66 183 0.0 2.0 0.00 0.00 0.00 38 1009.1
20260501193545 64 131 1.0 3.0 0.00 0.00 0.00 40 1009.4
20260501193044 64 274 2.0 3.0 0.00 0.00 0.00 39 1009.2
20260501192540 65 92 2.0 2.0 0.00 0.00 0.00 41 1009.3
20260501192038 64 40 2.0 3.0 0.00 0.00 0.00 41 1009.3
20260501191534 64 27 3.0 3.0 0.00 0.00 0.00 41 1009.5
20260501191031 64 43 3.0 3.0 0.00 0.00 0.00 41 1009.6
20260501190527 65 55 1.0 3.0 0.00 0.00 0.00 41 1009.6
20260501190023 64 219 2.0 3.0 0.00 0.00 0.00 39 1009.6
20260501185519 64 110 2.0 3.0 0.00 0.00 0.00 40 1009.6
20260501185015 64 118 3.0 3.0 0.00 0.00 0.00 42 1009.6
20260501184511 63 35 2.0 2.0 0.00 0.00 0.00 42 1009.7
20260501184006 64 250 1.0 4.0 0.00 0.00 0.00 37 1010.2
20260501183504 63 111 3.0 4.0 0.00 0.00 0.00 42 1010.0
20260501182959 63 301 2.0 2.0 0.00 0.00 0.00 40 1010.3
20260501182456 62 128 0.0 3.0 0.00 0.00 0.00 41 1010.3
20260501181953 63 136 1.0 5.0 0.00 0.00 0.00 42 1010.3
20260501181450 62 42 2.0 3.0 0.00 0.00 0.00 44 1010.2
20260501180947 62 43 2.0 4.0 0.00 0.00 0.00 43 1010.2
20260501180444 62 142 3.0 3.0 0.00 0.00 0.00 44 1010.6
20260501175940 61 61 2.0 3.0 0.00 0.00 0.00 44 1010.3
20260501175438 62 131 4.0 6.0 0.00 0.00 0.00 44 1010.4
20260501174934 62 87 3.0 3.0 0.00 0.00 0.00 44 1010.3
20260501174432 62 162 2.0 3.0 0.00 0.00 0.00 46 1010.5
20260501173929 63 34 3.0 3.0 0.00 0.00 0.00 44 1010.2
20260501173427 63 113 1.0 3.0 0.00 0.00 0.00 44 1010.4
20260501172922 63 296 0.0 3.0 0.00 0.00 0.00 44 1010.4
20260501172418 62 94 1.0 5.0 0.00 0.00 0.00 44 1010.7
20260501171913 62 274 2.0 3.0 0.00 0.00 0.00 41 1010.3
20260501171410 62 166 3.0 5.0 0.00 0.00 0.00 38 1010.5
20260501170907 62 91 2.0 3.0 0.00 0.00 0.00 39 1010.7
20260501170403 62 60 2.0 2.0 0.00 0.00 0.00 39 1010.5
20260501165901 61 163 2.0 4.0 0.00 0.00 0.00 37 1010.6
20260501165359 62 103 2.0 3.0 0.00 0.00 0.00 39 1010.8
20260501164856 60 306 0.0 3.0 0.00 0.00 0.00 39 1010.6
20260501164354 61 299 1.0 3.0 0.00 0.00 0.00 38 1010.8
20260501163850 61 129 6.0 6.0 0.00 0.00 0.00 39 1011.0
20260501163346 60 14 1.0 3.0 0.00 0.00 0.00 40 1010.9
20260501162843 60 54 2.0 3.0 0.00 0.00 0.00 43 1011.1
20260501162340 60 86 3.0 4.0 0.00 0.00 0.00 41 1011.2
20260501161837 60 44 0.0 3.0 0.00 0.00 0.00 40 1011.0
20260501161334 60 184 2.0 2.0 0.00 0.00 0.00 40 1010.9
20260501160830 60 300 1.0 3.0 0.00 0.00 0.00 42 1011.3
20260501160327 60 243 3.0 3.0 0.00 0.00 0.00 43 1011.5
20260501155825 59 19 2.0 2.0 0.00 0.00 0.00 43 1011.5
20260501155321 58 179 2.0 5.0 0.00 0.00 0.00 41 1011.5
20260501154818 57 287 1.0 5.0 0.00 0.00 0.00 44 1011.6
20260501154315 59 308 1.0 2.0 0.00 0.00 0.00 44 1011.7
20260501153813 58 208 2.0 2.0 0.00 0.00 0.00 45 1011.6
20260501153310 58 121 2.0 4.0 0.00 0.00 0.00 45 1011.6
20260501152806 58 37 0.0 2.0 0.00 0.00 0.00 47 1011.7